Location: Cheching
(60.0667°N, 164.2167°W)
Time: 13:28:06
(UTC+00:00)

NOAA 19 - Pass Details

Date: 17 January 2021
Orbit: 840 x 862 km, 99.2° (Epoch: 01 March)

Event Time Altitude Azimuth Distance (km) Brightness Sun altitude
Rises 16:27:36 0° 22° (NNE) 3,438 8.6 -22.6°
Reaches altitude 10° 16:30:42 10° 40° (NE) 2,493 8.1 -22.3°
Maximum altitude 16:34:37 19° 85° (E) 1,902 7.9 -21.8°
Drops below altitude 10° 16:38:30 10° 131° (SE) 2,471 8.4 -21.3°
Sets 16:41:33 0° 148° (SSE) 3,398 8.9 -20.9°
